Location: Fredericksburg
(30.2750°N, 98.8720°W)
Time: 02:40:39
(UTC-05:00)

PCSat - Pass Details

Date: 27 May 2018
Orbit: 784 x 796 km, 67.1° (Epoch: 19 June)

Event Time Altitude Azimuth Distance (km) Brightness Sun altitude
Exits shadow 04:13:31 23° 142° (SE) 1,610 11.0 -25.5°
Maximum altitude 04:15:27 29° 107° (ESE) 1,405 11.0 -25.3°
Drops below altitude 10° 04:20:03 10° 49° (NE) 2,356 13.1 -24.6°
Sets 04:22:44 0° 38° (NE) 3,291 14.2 -24.2°
